Location: Liberec
(50.7830°N, 15.0500°E)
Time: 23:35:57
(UTC+02:00)

ISS - Visible Passes

Search period start: 01 October 2020 00:00
Search period end: 11 October 2020 00:00
Orbit: 419 x 421 km, 51.6° (Epoch: 02 October)

Date Brightness Start Highest point End Pass type
(mag) Time Alt. Az. Time Alt. Az. Time Alt. Az.
01 Oct -3.8 19:29:37 10° WNW 19:33:00 84° SSW 19:35:43 15° ESE visible
01 Oct -1.7 21:06:39 10° W 21:08:41 23° WSW 21:08:41 23° WSW visible
02 Oct -2.7 20:19:14 10° W 20:22:23 37° SSW 20:23:18 30° S visible
03 Oct -3.1 19:31:54 10° W 19:35:11 51° SSW 19:37:58 13° SE visible
03 Oct -0.9 21:09:51 10° WSW 21:10:57 12° SW 21:10:57 12° SW visible
04 Oct -1.5 20:21:54 10° W 20:24:20 18° SW 20:25:41 15° S visible
05 Oct -1.9 19:34:18 10° W 19:37:10 26° SW 19:40:03 10° SSE visible
07 Oct -0.8 19:37:27 10° WSW 19:38:57 12° SW 19:40:27 10° SSW visible
08 Oct -1.0 18:49:25 10° W 18:51:50 18° SW 18:54:13 10° S visible
